Weather History for KIPL - February, 2013

Change the Weather History Date:

Wednesday, February 27, 2013

  Actual Average Record
Temperature  
Mean Temperature 54 °F -  
Max Temperature 70 °F 77 °F 96 °F (1986)
Min Temperature 37 °F 49 °F 31 °F (1971)
Degree Days  
Heating Degree Days 12    
Growing Degree Days 4 (Base 50)    
Moisture  
Dew Point 18 °F    
Average Humidity 28    
Maximum Humidity 53    
Minimum Humidity 9    
Precipitation  
Precipitation 0.00 in - - ()
Sea Level Pressure  
Sea Level Pressure 30.23 in    
Wind  
Wind Speed 6 mph (WNW)    
Max Wind Speed 10 mph    
Max Gust Speed 17 mph    
Visibility 10 miles    
Events      
Averages and records for this station are not official NWS values.
T = Trace of Precipitation, MM = Missing Value Source: NWS Daily Summary

Daily Weather History Graph

Daily Weather History Graph

Search for Another Location

Airport or City:

Trip Planner

Search our weather history database for the weather conditions in past years. The results will help you decide how hot, cold, wet, or windy it might be!

Date:

Astronomy

Feb. 27, 2013 Rise Set
Actual Time 6:12 AM PST 5:38 PM PST
Civil Twilight 5:47 AM PST 6:03 PM PST
Nautical Twilight 5:18 AM PST 6:31 PM PST
Astronomical Twilight 4:50 AM PST 7:00 PM PST
Moon 7:53 PM PST (2/27) 6:59 AM PST (2/27)
Length of Visible Light 12h 15m
Length of Day
11h 26m
Waning Gibbous, 96% of the Moon is Illuminated
Feb 27
Waning Gibbous
Mar 4
Last Quarter
Mar 11
New
Mar 19
First Quarter
Mar 27
Full

Hourly Weather History & Observations

Time (PST) Temp. Windchill Dew Point Humidity Pressure Visibility Wind Dir Wind Speed Gust Speed Precip Events Conditions
12:53 AM 44.1 °F 39.5 °F 23.0 °F 43% 30.17 in 10.0 mi West 8.1 mph - N/A   Clear
1:53 AM 43.0 °F 38.8 °F 19.9 °F 40% 30.17 in 10.0 mi WSW 6.9 mph - N/A   Clear
2:53 AM 39.9 °F 35.8 °F 19.9 °F 45% 30.17 in 10.0 mi West 5.8 mph - N/A   Clear
3:53 AM 37.9 °F 34.4 °F 21.9 °F 53% 30.17 in 10.0 mi West 4.6 mph - N/A   Clear
4:53 AM 37.9 °F 33.5 °F 21.0 °F 51% 30.20 in 10.0 mi WNW 5.8 mph - N/A   Clear
5:53 AM 37.9 °F 35.5 °F 19.9 °F 48% 30.22 in 10.0 mi WSW 3.5 mph - N/A   Clear
6:53 AM 39.9 °F 36.7 °F 19.9 °F 45% 30.25 in 10.0 mi West 4.6 mph - N/A   Clear
7:53 AM 50.0 °F - 28.9 °F 44% 30.28 in 10.0 mi Calm Calm - N/A   Clear
8:53 AM 62.1 °F - 25.0 °F 24% 30.28 in 10.0 mi North 8.1 mph - N/A   Clear
9:53 AM 64.9 °F - 14.0 °F 14% 30.29 in 10.0 mi North 8.1 mph - N/A   Clear
10:53 AM 66.0 °F - 14.0 °F 13% 30.29 in 10.0 mi North 10.4 mph - N/A   Clear
11:53 AM 68.0 °F - 18.0 °F 15% 30.27 in 10.0 mi NNW 9.2 mph - N/A   Clear
12:53 PM 69.1 °F - 15.1 °F 13% 30.24 in 10.0 mi North 10.4 mph 16.1 mph N/A   Clear
1:53 PM 70.0 °F - 10.9 °F 10% 30.22 in 10.0 mi NW 5.8 mph 17.3 mph N/A   Clear
2:53 PM 70.0 °F - 9.0 °F 9% 30.21 in 10.0 mi NNW 5.8 mph - N/A   Clear
3:53 PM 70.0 °F - 7.0 °F 9% 30.20 in 10.0 mi NNW 10.4 mph - N/A   Clear
4:53 PM 68.0 °F - 15.1 °F 13% 30.20 in 10.0 mi NW 5.8 mph - N/A   Clear
5:53 PM 64.0 °F - 19.0 °F 18% 30.19 in 10.0 mi Calm Calm - N/A   Clear
6:53 PM 60.1 °F - 18.0 °F 20% 30.20 in 10.0 mi NNW 3.5 mph - N/A   Clear
7:53 PM 51.1 °F - 21.9 °F 32% 30.23 in 10.0 mi West 6.9 mph - N/A   Clear
8:53 PM 50.0 °F - 21.0 °F 32% 30.25 in 10.0 mi West 8.1 mph - N/A   Clear
9:53 PM 48.0 °F - 21.0 °F 34% 30.27 in 10.0 mi West 8.1 mph - N/A   Clear
10:53 PM 50.0 °F - 19.4 °F 30% 30.27 in 10.0 mi WNW 8.1 mph - N/A   Clear
11:53 PM 50.0 °F - 17.1 °F 27% 30.27 in 10.0 mi Calm Calm - N/A   Clear